| time (UTC) | temp F | wind direction | speed MPH | gust MPH | rain 1hr in | rain 24hr in | rain mn in | humidity % | barometer mb |
| 20260507002945 | 61 | 238 | 22.0 | 28.0 | 0.00 | 0.00 | 0.00 | 100 | 938.1 |
| 20260507002542 | 61 | 237 | 20.0 | 28.0 | 0.00 | 0.00 | 0.00 | 100 | 938.1 |
| 20260507002142 | 61 | 236 | 18.0 | 22.0 | 0.00 | 0.00 | 0.00 | 100 | 938.2 |
| 20260507001742 | 61 | 236 | 18.0 | 23.0 | 0.00 | 0.00 | 0.00 | 100 | 938.1 |
| 20260507001342 | 61 | 240 | 18.0 | 24.0 | 0.00 | 0.00 | 0.00 | 100 | 938.1 |
| 20260507000942 | 61 | 239 | 19.0 | 23.0 | 0.00 | 0.00 | 0.00 | 100 | 938.1 |
| 20260507000539 | 61 | 237 | 20.0 | 25.0 | 0.00 | 0.00 | 0.00 | 100 | 938.1 |
| 20260507000140 | 61 | 234 | 17.0 | 22.0 | 0.00 | 0.00 | 0.00 | 100 | 938.1 |
| 20260506235736 | 61 | 238 | 18.0 | 22.0 | 0.00 | 0.00 | 0.00 | 100 | 938.1 |
| 20260506235336 | 61 | 240 | 17.0 | 21.0 | 0.00 | 0.00 | 0.00 | 100 | 938.2 |
| 20260506234936 | 62 | 237 | 18.0 | 22.0 | 0.00 | 0.00 | 0.00 | 100 | 938.2 |
| 20260506234533 | 62 | 238 | 18.0 | 22.0 | 0.00 | 0.00 | 0.00 | 100 | 938.2 |
| 20260506234133 | 61 | 238 | 23.0 | 28.0 | 0.00 | 0.00 | 0.00 | 100 | 938.3 |
| 20260506233733 | 61 | 243 | 21.0 | 30.0 | 0.00 | 0.00 | 0.00 | 100 | 938.2 |
| 20260506233333 | 61 | 244 | 19.0 | 25.0 | 0.00 | 0.00 | 0.00 | 100 | 938.3 |
| 20260506232933 | 61 | 237 | 19.0 | 25.0 | 0.00 | 0.00 | 0.00 | 100 | 938.3 |
| 20260506232530 | 61 | 236 | 20.0 | 30.0 | 0.00 | 0.00 | 0.00 | 100 | 938.2 |
| 20260506232130 | 61 | 234 | 16.0 | 20.0 | 0.00 | 0.00 | 0.00 | 100 | 938.2 |
| 20260506231722 | 61 | 235 | 16.0 | 22.0 | 0.00 | 0.00 | 0.00 | 100 | 938.2 |
| 20260506231322 | 61 | 237 | 17.0 | 23.0 | 0.00 | 0.00 | 0.00 | 100 | 938.2 |
| 20260506230922 | 61 | 237 | 16.0 | 23.0 | 0.00 | 0.00 | 0.00 | 100 | 938.2 |
| 20260506230519 | 61 | 237 | 17.0 | 21.0 | 0.00 | 0.00 | 0.00 | 100 | 938.3 |
| 20260506230119 | 61 | 238 | 19.0 | 22.0 | 0.00 | 0.00 | 0.00 | 100 | 938.3 |
| 20260506225719 | 62 | 233 | 19.0 | 24.0 | 0.00 | 0.00 | 0.00 | 100 | 938.3 |
| 20260506225318 | 62 | 236 | 19.0 | 23.0 | 0.00 | 0.00 | 0.00 | 100 | 938.3 |
| 20260506224918 | 62 | 243 | 21.0 | 26.0 | 0.00 | 0.00 | 0.00 | 100 | 938.3 |
| 20260506224515 | 62 | 243 | 22.0 | 27.0 | 0.00 | 0.00 | 0.00 | 100 | 938.3 |
| 20260506224115 | 62 | 244 | 26.0 | 32.0 | 0.00 | 0.00 | 0.00 | 100 | 938.3 |
| 20260506223715 | 62 | 243 | 28.0 | 33.0 | 0.00 | 0.00 | 0.00 | 100 | 938.3 |
| 20260506223315 | 62 | 243 | 28.0 | 36.0 | 0.00 | 0.00 | 0.00 | 100 | 938.2 |
| 20260506222915 | 61 | 245 | 29.0 | 36.0 | 0.00 | 0.00 | 0.00 | 100 | 938.3 |
| 20260506222512 | 61 | 243 | 24.0 | 35.0 | 0.00 | 0.00 | 0.00 | 100 | 938.1 |
| 20260506222112 | 62 | 245 | 27.0 | 35.0 | 0.00 | 0.00 | 0.00 | 100 | 938.1 |
| 20260506221712 | 62 | 244 | 28.0 | 36.0 | 0.00 | 0.00 | 0.00 | 100 | 938.1 |
| 20260506221312 | 62 | 248 | 28.0 | 36.0 | 0.00 | 0.00 | 0.00 | 100 | 938.1 |
| 20260506220912 | 62 | 247 | 32.0 | 41.0 | 0.00 | 0.00 | 0.00 | 100 | 938.1 |
| 20260506220509 | 61 | 243 | 28.0 | 32.0 | 0.00 | 0.00 | 0.00 | 100 | 938.1 |
| 20260506220109 | 61 | 244 | 28.0 | 31.0 | 0.00 | 0.00 | 0.00 | 100 | 938.1 |
| 20260506215709 | 61 | 243 | 28.0 | 31.0 | 0.00 | 0.00 | 0.00 | 100 | 938.1 |
| 20260506215306 | 61 | 243 | 27.0 | 34.0 | 0.00 | 0.00 | 0.00 | 100 | 938.1 |
| 20260506214906 | 61 | 243 | 27.0 | 34.0 | 0.00 | 0.00 | 0.00 | 100 | 938.1 |
| 20260506214503 | 61 | 244 | 26.0 | 31.0 | 0.00 | 0.00 | 0.00 | 100 | 938.0 |
| 20260506214103 | 61 | 245 | 28.0 | 37.0 | 0.00 | 0.00 | 0.00 | 100 | 938.1 |
| 20260506213703 | 61 | 247 | 26.0 | 35.0 | 0.00 | 0.00 | 0.00 | 100 | 938.1 |
| 20260506213303 | 61 | 247 | 28.0 | 41.0 | 0.00 | 0.00 | 0.00 | 100 | 938.0 |
| 20260506212903 | 61 | 245 | 29.0 | 38.0 | 0.00 | 0.00 | 0.00 | 100 | 938.0 |
| 20260506212500 | 61 | 245 | 23.0 | 31.0 | 0.00 | 0.00 | 0.00 | 100 | 938.1 |
| 20260506212100 | 61 | 244 | 20.0 | 30.0 | 0.00 | 0.00 | 0.00 | 100 | 938.1 |
| 20260506211700 | 61 | 244 | 21.0 | 29.0 | 0.00 | 0.00 | 0.00 | 100 | 938.1 |
| 20260506211301 | 61 | 245 | 27.0 | 37.0 | 0.00 | 0.00 | 0.00 | 100 | 938.1 |
| 20260506210901 | 61 | 243 | 24.0 | 29.0 | 0.00 | 0.00 | 0.00 | 100 | 938.1 |
| 20260506210458 | 61 | 240 | 20.0 | 25.0 | 0.00 | 0.00 | 0.00 | 100 | 938.1 |
| 20260506210058 | 61 | 236 | 18.0 | 23.0 | 0.00 | 0.00 | 0.00 | 100 | 938.1 |
| 20260506205658 | 61 | 240 | 20.0 | 31.0 | 0.00 | 0.00 | 0.00 | 100 | 938.1 |
| 20260506205258 | 61 | 236 | 14.0 | 19.0 | 0.00 | 0.00 | 0.00 | 100 | 938.1 |
| 20260506204858 | 61 | 238 | 18.0 | 25.0 | 0.00 | 0.00 | 0.00 | 100 | 938.0 |
| 20260506204444 | 61 | 238 | 22.0 | 29.0 | 0.00 | 0.00 | 0.00 | 100 | 938.0 |
| 20260506204044 | 61 | 241 | 23.0 | 34.0 | 0.00 | 0.00 | 0.00 | 100 | 938.0 |
| 20260506203244 | 61 | 239 | 16.0 | 22.0 | 0.00 | 0.00 | 0.00 | 100 | 938.0 |
| 20260506202844 | 61 | 242 | 25.0 | 35.0 | 0.00 | 0.00 | 0.00 | 100 | 938.0 |
| 20260506202441 | 61 | 245 | 21.0 | 26.0 | 0.00 | 0.00 | 0.00 | 100 | 938.0 |
| 20260506202041 | 61 | 241 | 16.0 | 21.0 | 0.00 | 0.00 | 0.00 | 100 | 938.0 |
| 20260506201641 | 61 | 243 | 22.0 | 29.0 | 0.00 | 0.00 | 0.00 | 100 | 938.0 |
| 20260506201241 | 61 | 238 | 18.0 | 22.0 | 0.00 | 0.00 | 0.00 | 100 | 938.0 |
| 20260506200841 | 61 | 236 | 16.0 | 22.0 | 0.00 | 0.00 | 0.00 | 100 | 938.0 |
| 20260506200438 | 61 | 238 | 18.0 | 23.0 | 0.00 | 0.00 | 0.00 | 100 | 938.0 |
| 20260506200038 | 61 | 238 | 18.0 | 21.0 | 0.00 | 0.00 | 0.00 | 100 | 938.0 |
| 20260506195638 | 61 | 238 | 17.0 | 21.0 | 0.00 | 0.00 | 0.00 | 100 | 938.0 |
| 20260506195238 | 61 | 240 | 17.0 | 26.0 | 0.00 | 0.00 | 0.00 | 100 | 938.1 |
| 20260506194835 | 61 | 235 | 15.0 | 25.0 | 0.00 | 0.00 | 0.00 | 100 | 938.1 |
| 20260506194432 | 61 | 236 | 14.0 | 20.0 | 0.00 | 0.00 | 0.00 | 100 | 938.1 |
| 20260506194032 | 61 | 240 | 19.0 | 26.0 | 0.00 | 0.00 | 0.00 | 100 | 938.1 |
| 20260506193632 | 61 | 238 | 18.0 | 27.0 | 0.00 | 0.00 | 0.00 | 100 | 938.1 |
| 20260506193232 | 61 | 237 | 16.0 | 22.0 | 0.00 | 0.00 | 0.00 | 100 | 938.1 |
| 20260506192832 | 61 | 238 | 18.0 | 22.0 | 0.00 | 0.00 | 0.00 | 100 | 938.1 |
| 20260506192429 | 61 | 238 | 12.0 | 16.0 | 0.00 | 0.00 | 0.00 | 100 | 938.1 |
| 20260506192029 | 62 | 238 | 14.0 | 21.0 | 0.00 | 0.00 | 0.00 | 100 | 938.1 |
| 20260506191629 | 62 | 237 | 17.0 | 27.0 | 0.00 | 0.00 | 0.00 | 100 | 938.1 |
| 20260506191229 | 61 | 239 | 13.0 | 18.0 | 0.00 | 0.00 | 0.00 | 100 | 938.2 |
| 20260506190829 | 61 | 238 | 10.0 | 16.0 | 0.00 | 0.00 | 0.00 | 100 | 938.1 |
| 20260506190426 | 61 | 238 | 12.0 | 18.0 | 0.00 | 0.00 | 0.00 | 100 | 938.1 |
| 20260506190026 | 61 | 240 | 12.0 | 16.0 | 0.00 | 0.00 | 0.00 | 100 | 938.1 |
| 20260506185626 | 61 | 238 | 11.0 | 17.0 | 0.00 | 0.00 | 0.00 | 100 | 938.1 |
| 20260506185227 | 61 | 238 | 12.0 | 19.0 | 0.00 | 0.00 | 0.00 | 100 | 938.1 |
| 20260506184827 | 61 | 238 | 11.0 | 17.0 | 0.00 | 0.00 | 0.00 | 100 | 938.1 |
| 20260506184424 | 62 | 239 | 13.0 | 20.0 | 0.00 | 0.00 | 0.00 | 100 | 938.1 |
| 20260506184024 | 62 | 238 | 16.0 | 22.0 | 0.00 | 0.00 | 0.00 | 100 | 938.0 |
| 20260506183624 | 62 | 238 | 14.0 | 21.0 | 0.00 | 0.00 | 0.00 | 100 | 938.0 |
| 20260506183224 | 62 | 238 | 14.0 | 18.0 | 0.00 | 0.00 | 0.00 | 100 | 938.0 |
| 20260506182823 | 62 | 238 | 15.0 | 19.0 | 0.00 | 0.00 | 0.00 | 100 | 938.0 |
| 20260506182420 | 62 | 237 | 18.0 | 25.0 | 0.00 | 0.00 | 0.00 | 100 | 938.0 |
| 20260506182020 | 62 | 237 | 20.0 | 25.0 | 0.00 | 0.00 | 0.00 | 100 | 938.0 |
| 20260506181620 | 62 | 238 | 17.0 | 22.0 | 0.00 | 0.00 | 0.00 | 100 | 937.9 |
| 20260506181220 | 63 | 239 | 18.0 | 23.0 | 0.00 | 0.00 | 0.00 | 100 | 937.9 |
| 20260506180812 | 63 | 243 | 22.0 | 28.0 | 0.00 | 0.00 | 0.00 | 100 | 937.9 |
| 20260506180409 | 62 | 238 | 18.0 | 25.0 | 0.00 | 0.00 | 0.00 | 100 | 937.9 |
| 20260506180009 | 62 | 237 | 20.0 | 31.0 | 0.00 | 0.00 | 0.00 | 100 | 937.8 |
| 20260506175209 | 63 | 241 | 21.0 | 27.0 | 0.00 | 0.00 | 0.00 | 100 | 937.8 |
| 20260506174809 | 63 | 238 | 22.0 | 29.0 | 0.00 | 0.00 | 0.00 | 100 | 937.8 |
| 20260506174402 | 63 | 241 | 20.0 | 27.0 | 0.00 | 0.00 | 0.00 | 100 | 937.8 |
| 20260506174002 | 63 | 239 | 20.0 | 34.0 | 0.00 | 0.00 | 0.00 | 100 | 937.8 |
| 20260506173602 | 63 | 242 | 22.0 | 30.0 | 0.00 | 0.00 | 0.00 | 100 | 937.9 |
| 20260506173202 | 63 | 243 | 23.0 | 31.0 | 0.00 | 0.00 | 0.00 | 100 | 937.9 |
| 20260506172802 | 64 | 244 | 21.0 | 28.0 | 0.00 | 0.00 | 0.00 | 100 | 937.9 |
| 20260506172400 | 64 | 243 | 20.0 | 24.0 | 0.00 | 0.00 | 0.00 | 100 | 938.0 |
| 20260506172000 | 64 | 244 | 25.0 | 33.0 | 0.00 | 0.00 | 0.00 | 100 | 938.0 |
| 20260506171600 | 64 | 245 | 22.0 | 27.0 | 0.00 | 0.00 | 0.00 | 100 | 937.9 |
| 20260506171200 | 64 | 246 | 24.0 | 31.0 | 0.00 | 0.00 | 0.00 | 100 | 938.0 |
| 20260506170800 | 65 | 247 | 27.0 | 33.0 | 0.00 | 0.00 | 0.00 | 100 | 938.0 |
| 20260506170357 | 65 | 251 | 24.0 | 38.0 | 0.00 | 0.00 | 0.00 | 100 | 938.0 |
| 20260506165957 | 65 | 245 | 26.0 | 37.0 | 0.00 | 0.00 | 0.00 | 100 | 938.0 |
| 20260506165557 | 65 | 244 | 28.0 | 35.0 | 0.00 | 0.00 | 0.00 | 100 | 938.0 |
| 20260506165157 | 65 | 246 | 31.0 | 41.0 | 0.00 | 0.00 | 0.00 | 100 | 937.9 |
| 20260506164757 | 66 | 245 | 27.0 | 38.0 | 0.00 | 0.00 | 0.00 | 100 | 937.9 |
| 20260506164354 | 66 | 247 | 24.0 | 33.0 | 0.00 | 0.00 | 0.00 | 100 | 937.8 |
| 20260506163954 | 66 | 245 | 27.0 | 39.0 | 0.00 | 0.00 | 0.00 | 100 | 937.7 |
| 20260506163554 | 67 | 247 | 28.0 | 39.0 | 0.00 | 0.00 | 0.00 | 100 | 937.8 |
| 20260506163155 | 67 | 246 | 30.0 | 35.0 | 0.00 | 0.00 | 0.00 | 100 | 937.8 |
| 20260506162754 | 67 | 248 | 28.0 | 39.0 | 0.00 | 0.00 | 0.00 | 100 | 937.8 |
| 20260506162351 | 67 | 250 | 25.0 | 37.0 | 0.00 | 0.00 | 0.00 | 100 | 937.7 |
| 20260506161951 | 67 | 247 | 23.0 | 29.0 | 0.00 | 0.00 | 0.00 | 100 | 937.7 |
| 20260506161551 | 67 | 249 | 24.0 | 32.0 | 0.00 | 0.00 | 0.00 | 100 | 937.7 |
| 20260506161151 | 67 | 244 | 28.0 | 36.0 | 0.00 | 0.00 | 0.00 | 100 | 937.8 |
| 20260506160752 | 67 | 245 | 30.0 | 40.0 | 0.00 | 0.00 | 0.00 | 100 | 937.8 |
| 20260506160349 | 67 | 247 | 27.0 | 34.0 | 0.00 | 0.00 | 0.00 | 100 | 937.8 |
| 20260506155949 | 67 | 247 | 24.0 | 30.0 | 0.00 | 0.00 | 0.00 | 100 | 937.8 |
| 20260506155549 | 67 | 248 | 24.0 | 30.0 | 0.00 | 0.00 | 0.00 | 100 | 937.8 |
| 20260506155149 | 67 | 246 | 26.0 | 33.0 | 0.00 | 0.00 | 0.00 | 100 | 937.9 |
| 20260506154748 | 67 | 249 | 24.0 | 30.0 | 0.00 | 0.00 | 0.00 | 100 | 937.9 |
| 20260506154345 | 67 | 250 | 30.0 | 38.0 | 0.00 | 0.00 | 0.00 | 100 | 937.9 |
| 20260506153942 | 67 | 248 | 28.0 | 39.0 | 0.00 | 0.00 | 0.00 | 100 | 937.9 |
| 20260506153542 | 67 | 248 | 25.0 | 32.0 | 0.00 | 0.00 | 0.00 | 100 | 937.9 |
| 20260506153131 | 68 | 249 | 30.0 | 40.0 | 0.00 | 0.00 | 0.00 | 100 | 937.9 |
| 20260506152731 | 68 | 250 | 30.0 | 44.0 | 0.00 | 0.00 | 0.00 | 100 | 937.8 |
| 20260506152328 | 68 | 248 | 29.0 | 41.0 | 0.00 | 0.00 | 0.00 | 100 | 937.9 |
| 20260506151928 | 68 | 247 | 32.0 | 39.0 | 0.00 | 0.00 | 0.00 | 100 | 937.9 |
| 20260506151528 | 68 | 248 | 30.0 | 41.0 | 0.00 | 0.00 | 0.00 | 100 | 937.9 |
| 20260506151128 | 68 | 246 | 30.0 | 38.0 | 0.00 | 0.00 | 0.00 | 100 | 938.0 |
| 20260506150728 | 68 | 245 | 26.0 | 36.0 | 0.00 | 0.00 | 0.00 | 100 | 938.0 |
| 20260506150325 | 69 | 246 | 28.0 | 45.0 | 0.00 | 0.00 | 0.00 | 100 | 938.0 |
| 20260506145925 | 69 | 247 | 33.0 | 45.0 | 0.00 | 0.00 | 0.00 | 100 | 938.1 |
| 20260506145525 | 69 | 248 | 30.0 | 41.0 | 0.00 | 0.00 | 0.00 | 100 | 938.2 |
| 20260506145125 | 68 | 248 | 34.0 | 44.0 | 0.00 | 0.00 | 0.00 | 100 | 938.1 |
| 20260506144725 | 68 | 246 | 29.0 | 44.0 | 0.00 | 0.00 | 0.00 | 100 | 938.2 |
| 20260506144322 | 67 | 248 | 32.0 | 44.0 | 0.00 | 0.00 | 0.00 | 100 | 938.1 |
| 20260506143922 | 68 | 247 | 28.0 | 40.0 | 0.00 | 0.00 | 0.00 | 100 | 938.3 |
| 20260506143523 | 68 | 248 | 34.0 | 46.0 | 0.00 | 0.00 | 0.00 | 100 | 938.3 |
| 20260506143122 | 69 | 249 | 33.0 | 40.0 | 0.00 | 0.00 | 0.00 | 100 | 938.2 |
| 20260506142723 | 69 | 250 | 38.0 | 48.0 | 0.00 | 0.00 | 0.00 | 100 | 938.2 |
| 20260506142320 | 70 | 248 | 35.0 | 45.0 | 0.00 | 0.00 | 0.00 | 100 | 938.2 |
| 20260506141920 | 70 | 248 | 38.0 | 52.0 | 0.00 | 0.00 | 0.00 | 100 | 938.2 |
| 20260506141520 | 70 | 249 | 39.0 | 50.0 | 0.00 | 0.00 | 0.00 | 100 | 938.2 |
| 20260506140720 | 70 | 251 | 30.0 | 40.0 | 0.00 | 0.00 | 0.00 | 100 | 938.2 |
| 20260506140317 | 70 | 255 | 30.0 | 37.0 | 0.00 | 0.00 | 0.00 | 100 | 938.2 |
| 20260506135916 | 71 | 249 | 32.0 | 40.0 | 0.00 | 0.00 | 0.00 | 100 | 938.2 |
| 20260506135516 | 71 | 253 | 32.0 | 40.0 | 0.00 | 0.00 | 0.00 | 100 | 938.2 |
| 20260506135116 | 71 | 245 | 26.0 | 34.0 | 0.00 | 0.00 | 0.00 | 100 | 938.2 |
| 20260506134716 | 71 | 246 | 26.0 | 36.0 | 0.00 | 0.00 | 0.00 | 100 | 938.2 |
| 20260506134314 | 71 | 246 | 26.0 | 32.0 | 0.00 | 0.00 | 0.00 | 100 | 938.3 |
| 20260506133914 | 71 | 249 | 26.0 | 34.0 | 0.00 | 0.00 | 0.00 | 100 | 938.3 |
| 20260506133510 | 71 | 250 | 30.0 | 36.0 | 0.00 | 0.00 | 0.00 | 100 | 938.3 |
| 20260506133110 | 71 | 250 | 23.0 | 30.0 | 0.00 | 0.00 | 0.00 | 100 | 938.3 |
| 20260506132710 | 70 | 248 | 26.0 | 36.0 | 0.00 | 0.00 | 0.00 | 100 | 938.3 |
| 20260506132308 | 70 | 245 | 26.0 | 33.0 | 0.00 | 0.00 | 0.00 | 100 | 938.4 |
| 20260506131908 | 70 | 245 | 26.0 | 39.0 | 0.00 | 0.00 | 0.00 | 100 | 938.3 |
| 20260506131508 | 70 | 244 | 22.0 | 32.0 | 0.00 | 0.00 | 0.00 | 100 | 938.4 |
| 20260506131108 | 70 | 248 | 28.0 | 40.0 | 0.00 | 0.00 | 0.00 | 100 | 938.4 |
| 20260506130708 | 70 | 247 | 29.0 | 36.0 | 0.00 | 0.00 | 0.00 | 100 | 938.4 |
| 20260506130305 | 70 | 251 | 27.0 | 34.0 | 0.00 | 0.00 | 0.00 | 100 | 938.4 |
| 20260506125905 | 70 | 249 | 29.0 | 46.0 | 0.00 | 0.00 | 0.00 | 100 | 938.5 |
| 20260506125456 | 70 | 244 | 33.0 | 46.0 | 0.00 | 0.00 | 0.00 | 100 | 938.5 |
| 20260506125056 | 70 | 248 | 30.0 | 40.0 | 0.00 | 0.00 | 0.00 | 100 | 938.5 |
| 20260506124656 | 69 | 246 | 27.0 | 38.0 | 0.00 | 0.00 | 0.00 | 100 | 938.5 |
| 20260506124254 | 69 | 245 | 27.0 | 39.0 | 0.00 | 0.00 | 0.00 | 100 | 938.5 |
| 20260506123854 | 69 | 245 | 29.0 | 48.0 | 0.00 | 0.00 | 0.00 | 100 | 938.5 |
| 20260506123454 | 69 | 243 | 28.0 | 40.0 | 0.00 | 0.00 | 0.00 | 100 | 938.5 |
| 20260506123054 | 69 | 247 | 31.0 | 40.0 | 0.00 | 0.00 | 0.00 | 100 | 938.5 |
| 20260506122654 | 68 | 246 | 36.0 | 46.0 | 0.00 | 0.00 | 0.00 | 100 | 938.4 |
| 20260506122251 | 69 | 248 | 40.0 | 52.0 | 0.00 | 0.00 | 0.00 | 100 | 938.5 |
| 20260506121851 | 69 | 244 | 38.0 | 50.0 | 0.00 | 0.00 | 0.00 | 100 | 938.5 |
| 20260506121451 | 69 | 241 | 27.0 | 40.0 | 0.00 | 0.00 | 0.00 | 100 | 938.6 |
| 20260506121051 | 69 | 246 | 33.0 | 41.0 | 0.00 | 0.00 | 0.00 | 100 | 938.6 |
| 20260506120651 | 69 | 249 | 34.0 | 41.0 | 0.00 | 0.00 | 0.00 | 100 | 938.5 |
| 20260506120248 | 69 | 249 | 37.0 | 44.0 | 0.00 | 0.00 | 0.00 | 100 | 938.5 |
| 20260506115848 | 69 | 248 | 36.0 | 43.0 | 0.00 | 0.00 | 0.00 | 100 | 938.6 |
| 20260506115448 | 69 | 248 | 34.0 | 45.0 | 0.00 | 0.00 | 0.00 | 100 | 938.6 |
| 20260506114648 | 68 | 251 | 36.0 | 46.0 | 0.00 | 0.00 | 0.00 | 100 | 938.7 |
| 20260506114245 | 69 | 250 | 30.0 | 38.0 | 0.00 | 0.00 | 0.00 | 100 | 938.7 |
| 20260506113845 | 69 | 251 | 32.0 | 39.0 | 0.00 | 0.00 | 0.00 | 100 | 938.6 |
| 20260506113445 | 69 | 245 | 34.0 | 41.0 | 0.00 | 0.00 | 0.00 | 100 | 938.6 |
| 20260506113042 | 70 | 248 | 33.0 | 40.0 | 0.00 | 0.00 | 0.00 | 100 | 938.6 |
| 20260506112642 | 70 | 244 | 29.0 | 43.0 | 0.00 | 0.00 | 0.00 | 100 | 938.8 |
| 20260506112239 | 69 | 243 | 22.0 | 31.0 | 0.00 | 0.00 | 0.00 | 100 | 938.8 |
| 20260506111839 | 68 | 245 | 24.0 | 35.0 | 0.00 | 0.00 | 0.00 | 100 | 938.8 |
| 20260506111439 | 68 | 247 | 32.0 | 44.0 | 0.00 | 0.00 | 0.00 | 100 | 938.8 |
| 20260506111039 | 68 | 249 | 28.0 | 38.0 | 0.00 | 0.00 | 0.00 | 100 | 938.8 |
| 20260506110639 | 67 | 245 | 30.0 | 40.0 | 0.00 | 0.00 | 0.00 | 100 | 938.8 |
| 20260506110236 | 66 | 245 | 29.0 | 40.0 | 0.00 | 0.00 | 0.00 | 100 | 938.8 |
| 20260506105836 | 66 | 243 | 35.0 | 44.0 | 0.00 | 0.00 | 0.00 | 100 | 938.7 |
| 20260506105436 | 66 | 245 | 36.0 | 46.0 | 0.00 | 0.00 | 0.00 | 100 | 938.6 |
| 20260506105036 | 66 | 241 | 39.0 | 54.0 | 0.00 | 0.00 | 0.00 | 100 | 938.7 |
| 20260506104636 | 66 | 247 | 38.0 | 49.0 | 0.00 | 0.00 | 0.00 | 100 | 938.6 |
| 20260506104233 | 66 | 246 | 44.0 | 62.0 | 0.00 | 0.00 | 0.00 | 100 | 938.8 |
| 20260506103834 | 67 | 245 | 31.0 | 47.0 | 0.00 | 0.00 | 0.00 | 100 | 938.8 |
| 20260506103434 | 67 | 247 | 32.0 | 43.0 | 0.00 | 0.00 | 0.00 | 100 | 938.9 |
| 20260506103034 | 66 | 248 | 30.0 | 38.0 | 0.00 | 0.00 | 0.00 | 100 | 938.9 |
| 20260506102634 | 66 | 247 | 30.0 | 42.0 | 0.00 | 0.00 | 0.00 | 100 | 939.0 |
| 20260506102220 | 66 | 243 | 27.0 | 46.0 | 0.00 | 0.00 | 0.00 | 100 | 938.9 |
| 20260506101819 | 66 | 244 | 29.0 | 42.0 | 0.00 | 0.00 | 0.00 | 100 | 938.9 |
| 20260506101020 | 65 | 246 | 36.0 | 54.0 | 0.00 | 0.00 | 0.00 | 100 | 938.9 |
| 20260506100620 | 65 | 248 | 30.0 | 41.0 | 0.00 | 0.00 | 0.00 | 100 | 938.8 |
| 20260506100217 | 65 | 248 | 36.0 | 47.0 | 0.00 | 0.00 | 0.00 | 100 | 938.9 |
| 20260506095817 | 65 | 249 | 31.0 | 41.0 | 0.00 | 0.00 | 0.00 | 100 | 938.9 |
| 20260506095417 | 65 | 246 | 25.0 | 35.0 | 0.00 | 0.00 | 0.00 | 100 | 938.9 |
| 20260506095017 | 65 | 247 | 27.0 | 40.0 | 0.00 | 0.00 | 0.00 | 100 | 938.9 |
| 20260506094617 | 66 | 247 | 32.0 | 42.0 | 0.00 | 0.00 | 0.00 | 100 | 938.9 |
| 20260506094214 | 66 | 244 | 28.0 | 40.0 | 0.00 | 0.00 | 0.00 | 100 | 938.9 |
| 20260506093813 | 67 | 248 | 24.0 | 29.0 | 0.00 | 0.00 | 0.00 | 100 | 938.9 |
| 20260506093414 | 67 | 248 | 27.0 | 33.0 | 0.00 | 0.00 | 0.00 | 100 | 939.0 |
| 20260506093014 | 67 | 250 | 32.0 | 39.0 | 0.00 | 0.00 | 0.00 | 100 | 938.9 |
| 20260506092610 | 66 | 248 | 31.0 | 38.0 | 0.00 | 0.00 | 0.00 | 100 | 938.9 |
| 20260506092208 | 66 | 250 | 29.0 | 35.0 | 0.00 | 0.00 | 0.00 | 100 | 938.9 |
| 20260506091808 | 67 | 250 | 33.0 | 46.0 | 0.00 | 0.00 | 0.00 | 100 | 938.9 |
| 20260506091408 | 67 | 245 | 36.0 | 53.0 | 0.00 | 0.00 | 0.00 | 100 | 938.8 |
| 20260506091008 | 67 | 254 | 30.0 | 43.0 | 0.00 | 0.00 | 0.00 | 100 | 938.7 |
| 20260506090608 | 67 | 247 | 28.0 | 37.0 | 0.00 | 0.00 | 0.00 | 100 | 938.8 |
| 20260506090205 | 67 | 244 | 27.0 | 40.0 | 0.00 | 0.00 | 0.00 | 100 | 938.8 |
| 20260506085805 | 66 | 243 | 23.0 | 34.0 | 0.00 | 0.00 | 0.00 | 100 | 938.8 |
| 20260506085405 | 66 | 248 | 28.0 | 41.0 | 0.00 | 0.00 | 0.00 | 100 | 938.7 |
| 20260506085005 | 66 | 248 | 27.0 | 42.0 | 0.00 | 0.00 | 0.00 | 100 | 938.8 |
| 20260506084605 | 66 | 243 | 25.0 | 45.0 | 0.00 | 0.00 | 0.00 | 100 | 938.7 |
| 20260506084202 | 65 | 242 | 25.0 | 36.0 | 0.00 | 0.00 | 0.00 | 100 | 938.8 |
| 20260506083802 | 65 | 243 | 24.0 | 31.0 | 0.00 | 0.00 | 0.00 | 100 | 938.7 |
| 20260506083402 | 64 | 243 | 23.0 | 32.0 | 0.00 | 0.00 | 0.00 | 100 | 938.7 |
| 20260506083002 | 64 | 241 | 22.0 | 28.0 | 0.00 | 0.00 | 0.00 | 100 | 938.7 |
| 20260506082602 | 64 | 244 | 23.0 | 33.0 | 0.00 | 0.00 | 0.00 | 100 | 938.6 |
| 20260506082159 | 64 | 245 | 26.0 | 42.0 | 0.00 | 0.00 | 0.00 | 100 | 938.7 |
| 20260506081759 | 65 | 242 | 23.0 | 32.0 | 0.00 | 0.00 | 0.00 | 100 | 938.5 |
| 20260506081359 | 65 | 242 | 22.0 | 29.0 | 0.00 | 0.00 | 0.00 | 100 | 938.6 |
| 20260506081000 | 64 | 243 | 23.0 | 30.0 | 0.00 | 0.00 | 0.00 | 100 | 938.5 |
| 20260506080559 | 64 | 244 | 27.0 | 36.0 | 0.00 | 0.00 | 0.00 | 100 | 938.5 |
| 20260506080156 | 64 | 243 | 21.0 | 29.0 | 0.00 | 0.00 | 0.00 | 100 | 938.5 |
| 20260506072945 | 65 | 239 | 21.0 | 31.0 | 0.00 | 0.00 | 0.00 | 100 | 938.3 |
| 20260506072545 | 64 | 239 | 17.0 | 26.0 | 0.00 | 0.00 | 0.00 | 100 | 938.3 |
| 20260506072138 | 64 | 238 | 20.0 | 27.0 | 0.00 | 0.00 | 0.00 | 100 | 938.3 |
| 20260506071738 | 65 | 242 | 23.0 | 30.0 | 0.00 | 0.00 | 0.00 | 100 | 938.3 |
| 20260506071338 | 64 | 242 | 20.0 | 27.0 | 0.00 | 0.00 | 0.00 | 100 | 938.3 |
| 20260506070938 | 64 | 241 | 20.0 | 30.0 | 0.00 | 0.00 | 0.00 | 100 | 938.3 |
| 20260506070538 | 64 | 242 | 20.0 | 28.0 | 0.00 | 0.00 | 0.00 | 100 | 938.3 |
| 20260506070135 | 64 | 241 | 19.0 | 28.0 | 0.00 | 0.00 | 0.00 | 100 | 938.2 |
| 20260506062130 | 62 | 239 | 16.0 | 23.0 | 0.00 | 0.00 | 0.00 | 100 | 938.2 |
| 20260506061730 | 62 | 243 | 20.0 | 29.0 | 0.00 | 0.00 | 0.00 | 100 | 938.1 |
| 20260506061330 | 62 | 243 | 19.0 | 28.0 | 0.00 | 0.00 | 0.00 | 100 | 938.1 |
| 20260506060930 | 62 | 243 | 18.0 | 25.0 | 0.00 | 0.00 | 0.00 | 100 | 938.1 |
| 20260506060530 | 62 | 240 | 18.0 | 28.0 | 0.00 | 0.00 | 0.00 | 100 | 938.1 |
| 20260506060127 | 62 | 240 | 19.0 | 27.0 | 0.00 | 0.00 | 0.00 | 100 | 938.1 |
| 20260506051318 | 60 | 239 | 13.0 | 20.0 | 0.00 | 0.00 | 0.00 | 100 | 938.1 |
| 20260506050906 | 60 | 233 | 12.0 | 18.0 | 0.00 | 0.00 | 0.00 | 100 | 938.0 |
| 20260506050507 | 59 | 232 | 10.0 | 16.0 | 0.00 | 0.00 | 0.00 | 100 | 938.0 |
| 20260506050104 | 59 | 231 | 11.0 | 18.0 | 0.00 | 0.00 | 0.00 | 100 | 938.1 |
| 20260506044904 | 58 | 231 | 9.0 | 15.0 | 0.00 | 0.00 | 0.00 | 100 | 938.1 |
| 20260506044504 | 58 | 230 | 8.0 | 14.0 | 0.00 | 0.00 | 0.00 | 100 | 938.0 |
| 20260506044101 | 58 | 228 | 11.0 | 14.0 | 0.00 | 0.00 | 0.00 | 100 | 938.0 |
| 20260506043701 | 58 | 229 | 11.0 | 14.0 | 0.00 | 0.00 | 0.00 | 100 | 938.0 |
| 20260506043301 | 58 | 227 | 10.0 | 13.0 | 0.00 | 0.00 | 0.00 | 100 | 938.0 |
| 20260506042901 | 58 | 227 | 12.0 | 15.0 | 0.00 | 0.00 | 0.00 | 100 | 938.0 |
| 20260506042501 | 58 | 228 | 16.0 | 18.0 | 0.00 | 0.00 | 0.00 | 100 | 938.0 |
| 20260506042058 | 58 | 229 | 16.0 | 19.0 | 0.00 | 0.00 | 0.00 | 100 | 938.0 |
| 20260506041658 | 58 | 230 | 16.0 | 21.0 | 0.00 | 0.00 | 0.00 | 100 | 938.0 |
| 20260506041258 | 58 | 231 | 15.0 | 17.0 | 0.00 | 0.00 | 0.00 | 100 | 938.0 |
| 20260506040858 | 57 | 230 | 16.0 | 19.0 | 0.00 | 0.00 | 0.00 | 100 | 938.0 |
| 20260506040458 | 57 | 230 | 17.0 | 20.0 | 0.00 | 0.00 | 0.00 | 100 | 938.0 |
| 20260506040055 | 57 | 230 | 15.0 | 20.0 | 0.00 | 0.00 | 0.00 | 100 | 938.0 |
| 20260506035656 | 57 | 230 | 17.0 | 19.0 | 0.00 | 0.00 | 0.00 | 100 | 938.0 |
| 20260506035256 | 58 | 234 | 17.0 | 20.0 | 0.00 | 0.00 | 0.00 | 100 | 938.0 |
| 20260506034456 | 58 | 240 | 18.0 | 20.0 | 0.00 | 0.00 | 0.00 | 100 | 938.0 |
| 20260506034053 | 58 | 239 | 18.0 | 21.0 | 0.00 | 0.00 | 0.00 | 100 | 938.0 |
| 20260506033652 | 58 | 237 | 19.0 | 23.0 | 0.00 | 0.00 | 0.00 | 100 | 938.0 |
| 20260506033252 | 58 | 230 | 20.0 | 25.0 | 0.00 | 0.00 | 0.00 | 100 | 937.9 |
| 20260506032852 | 57 | 231 | 19.0 | 22.0 | 0.00 | 0.00 | 0.00 | 100 | 937.9 |
| 20260506032452 | 57 | 231 | 18.0 | 24.0 | 0.00 | 0.00 | 0.00 | 100 | 937.9 |
| 20260506032049 | 57 | 232 | 18.0 | 21.0 | 0.00 | 0.00 | 0.00 | 100 | 938.0 |
| 20260506031650 | 56 | 221 | 16.0 | 18.0 | 0.00 | 0.00 | 0.00 | 100 | 937.9 |
| 20260506031246 | 56 | 221 | 16.0 | 18.0 | 0.00 | 0.00 | 0.00 | 100 | 938.0 |
| 20260506030846 | 56 | 221 | 16.0 | 18.0 | 0.00 | 0.00 | 0.00 | 100 | 938.0 |
| 20260506030446 | 57 | 221 | 12.0 | 16.0 | 0.00 | 0.00 | 0.00 | 100 | 937.9 |
| 20260506030043 | 57 | 226 | 14.0 | 18.0 | 0.00 | 0.00 | 0.00 | 100 | 937.9 |
| 20260506025643 | 57 | 227 | 12.0 | 16.0 | 0.00 | 0.00 | 0.00 | 100 | 937.9 |
| 20260506025243 | 57 | 225 | 12.0 | 15.0 | 0.00 | 0.00 | 0.00 | 100 | 937.9 |
| 20260506024843 | 57 | 222 | 10.0 | 15.0 | 0.00 | 0.00 | 0.00 | 100 | 937.9 |
| 20260506024444 | 57 | 228 | 12.0 | 14.0 | 0.00 | 0.00 | 0.00 | 100 | 937.8 |
| 20260506024041 | 57 | 227 | 12.0 | 17.0 | 0.00 | 0.00 | 0.00 | 100 | 937.9 |
| 20260506023641 | 58 | 235 | 13.0 | 15.0 | 0.00 | 0.00 | 0.00 | 100 | 937.9 |
| 20260506023232 | 58 | 233 | 16.0 | 19.0 | 0.00 | 0.00 | 0.00 | 100 | 937.9 |
| 20260506022832 | 58 | 236 | 14.0 | 18.0 | 0.00 | 0.00 | 0.00 | 100 | 937.9 |
| 20260506022432 | 59 | 237 | 14.0 | 21.0 | 0.00 | 0.00 | 0.00 | 100 | 937.9 |
| 20260506022029 | 59 | 236 | 13.0 | 19.0 | 0.00 | 0.00 | 0.00 | 100 | 937.9 |
| 20260506021629 | 59 | 235 | 14.0 | 19.0 | 0.00 | 0.00 | 0.00 | 100 | 937.9 |
| 20260506021229 | 58 | 237 | 14.0 | 20.0 | 0.00 | 0.00 | 0.00 | 100 | 937.9 |
| 20260506020829 | 58 | 237 | 12.0 | 22.0 | 0.00 | 0.00 | 0.00 | 100 | 937.9 |
| 20260506020430 | 58 | 233 | 16.0 | 23.0 | 0.00 | 0.00 | 0.00 | 100 | 937.9 |
| 20260506020027 | 58 | 234 | 20.0 | 22.0 | 0.00 | 0.00 | 0.00 | 100 | 937.9 |
| 20260506015627 | 59 | 234 | 16.0 | 20.0 | 0.00 | 0.00 | 0.00 | 100 | 937.9 |
| 20260506015227 | 59 | 235 | 13.0 | 19.0 | 0.00 | 0.00 | 0.00 | 100 | 938.0 |
| 20260506014827 | 59 | 236 | 13.0 | 18.0 | 0.00 | 0.00 | 0.00 | 100 | 937.9 |
| 20260506014427 | 59 | 233 | 13.0 | 21.0 | 0.00 | 0.00 | 0.00 | 100 | 937.9 |
| 20260506014024 | 59 | 236 | 12.0 | 18.0 | 0.00 | 0.00 | 0.00 | 100 | 938.0 |
| 20260506013624 | 59 | 235 | 12.0 | 17.0 | 0.00 | 0.00 | 0.00 | 100 | 938.0 |
| 20260506013224 | 60 | 236 | 15.0 | 20.0 | 0.00 | 0.00 | 0.00 | 100 | 938.0 |
| 20260506012824 | 60 | 236 | 13.0 | 21.0 | 0.00 | 0.00 | 0.00 | 100 | 938.0 |
| 20260506012424 | 60 | 238 | 14.0 | 19.0 | 0.00 | 0.00 | 0.00 | 100 | 938.0 |
| 20260506012021 | 60 | 238 | 13.0 | 17.0 | 0.00 | 0.00 | 0.00 | 100 | 937.9 |
| 20260506011621 | 60 | 238 | 12.0 | 15.0 | 0.00 | 0.00 | 0.00 | 100 | 937.9 |
| 20260506011221 | 60 | 240 | 13.0 | 18.0 | 0.00 | 0.00 | 0.00 | 100 | 937.9 |
| 20260506010818 | 60 | 237 | 11.0 | 14.0 | 0.00 | 0.00 | 0.00 | 100 | 938.0 |
| 20260506010418 | 60 | 237 | 13.0 | 17.0 | 0.00 | 0.00 | 0.00 | 100 | 938.0 |
| 20260506010015 | 60 | 237 | 11.0 | 15.0 | 0.00 | 0.00 | 0.00 | 100 | 938.0 |
| 20260506005615 | 60 | 237 | 13.0 | 20.0 | 0.00 | 0.00 | 0.00 | 100 | 938.0 |
| 20260506005215 | 60 | 237 | 10.0 | 17.0 | 0.00 | 0.00 | 0.00 | 100 | 938.0 |
| 20260506004815 | 60 | 238 | 10.0 | 13.0 | 0.00 | 0.00 | 0.00 | 100 | 938.0 |
| 20260506004415 | 60 | 237 | 11.0 | 19.0 | 0.00 | 0.00 | 0.00 | 100 | 938.0 |
| 20260506004012 | 60 | 236 | 12.0 | 16.0 | 0.00 | 0.00 | 0.00 | 100 | 938.0 |
| 20260506003612 | 60 | 236 | 12.0 | 18.0 | 0.00 | 0.00 | 0.00 | 100 | 938.0 |
| 20260506003212 | 61 | 237 | 10.0 | 14.0 | 0.00 | 0.00 | 0.00 | 100 | 937.9 |